This demonstration page uses our WeatherBlox Daily Observations layout. Learn more.

Left ArrowRight Arrow

44.31136, -96.79839

Hourly Observations for May 19, 2022

Temp ( °F °C ) Dew Point ( °F °C ) Humidity (%) Winds ( mph kmh ) Pressure ( in mb ) Visibility ( mi km ) Precip ( " mm )
12:56 am 00:56 Clear 53 11.7 43 6.1 69 69 Calm 29.76 1008 10 16 0.00 0.00
1:56 am 01:56 Clear 50 10 43 6.1 77 77 SSE 3 6 29.74 1007 10 16 0.00 0.00
2:56 am 02:56 Clear 50 10 44 6.7 80 80 SSE 6 9 29.74 1007 10 16 0.00 0.00
3:56 am 03:56 Clear 49 9.4 46 7.8 90 90 ENE 6 9 29.70 1006 10 16 0.00 0.00
4:56 am 04:56 Clear 48 8.9 45 7.2 89 89 VRB 5 7 29.68 1005 10 16 0.00 0.00
5:56 am 05:56 Sunny 48 8.9 45 7.2 89 89 SE 6 9 29.66 1005 10 16 0.00 0.00
6:56 am 06:56 Sunny 51 10.6 46 7.8 83 83 E 6 9 29.63 1004 10 16 0.00 0.00
7:56 am 07:56 Sunny 55 12.8 46 7.8 72 72 E 10 17 29.59 1002 10 16 0.00 0.00
8:56 am 08:56 Sunny 57 13.9 48 8.9 72 72 SE 14 22 29.56 1001 10 16 0.00 0.00
9:56 am 09:56 Partly Cloudy 63 17.2 49 9.4 60 60 ESE 14 22 29.49 999 10 16 0.00 0.00
10:56 am 10:56 Mostly Cloudy 69 20.6 49 9.4 49 49 E 9 15 29.46 998 10 16 0.00 0.00
11:56 am 11:56 Sunny 73 22.8 50 10 44 44 E 14 22 29.39 995 10 16 0.00 0.00
12:56 pm 12:56 Sunny 74 23.3 53 11.7 48 48 ESE 14 22 29.36 994 10 16 0.00 0.00
1:56 pm 13:56 Mostly Sunny 78 25.6 56 13.3 47 47 S 9 15 29.31 993 10 16 0.00 0.00
2:56 pm 14:56 Sunny 81 27.2 56 13.3 42 42 S 8 13 29.27 991 10 16 0.00 0.00
3:56 pm 15:56 Sunny 83 28.3 51 10.6 33 33 WSW 20 31 29.24 990 10 16 0.00 0.00
4:56 pm 16:56 Sunny 79 26.1 52 11.1 39 39 W 18 30 29.24 990 10 16 0.00 0.00
5:56 pm 17:56 Sunny 80 26.7 56 13.3 44 44 WNW 18 30 29.25 991 10 16 0.00 0.00
6:56 pm 18:56 Sunny 75 23.9 55 12.8 50 50 WNW 13 20 29.25 991 10 16 0.00 0.00
7:56 pm 19:56 Sunny 58 14.4 51 10.6 78 78 NW 35 56 29.31 993 10 16 0.00 0.00
8:56 pm 20:56 Mostly Clear 53 11.7 46 7.8 77 77 NNW 26 43 29.39 995 10 16 0.00 0.00
9:56 pm 21:56 Cloudy with Light Rain 49 9.4 48 8.9 97 97 NNW 21 33 29.41 996 10 16 0.00 0.00
10:56 pm 22:56 Cloudy with Light Rain 48 8.9 48 8.9 100 100 NW 20 31 29.47 998 10 16 0.02 0.51
11:56 pm 23:56 Cloudy with Light Rain 47 8.3 46 7.8 97 97 NW 15 24 29.49 999 8 13 0.06 1.52

Powered by AerisWeather